Home   Weather   Albuquerque   Past weeks

Flag for USA Past Weather in Albuquerque, New Mexico, USA — Yesterday and Last 2 Weeks

54 °F


Feels Like: 51 °F
Forecast: 48 / 76 °F
Wind: 10 mph from North

Location: Albuquerque International Airport

Current Time: Oct 26, 2016 at 9:19:35 AM

Latest Report: Oct 26, 2016 at 8:52 AM

Visibility: 10 mi

Pressure: 30.22 "Hg (25.22 "Hg at 1510m altitude)

Humidity: 59%

Dew Point: 40 °F

Location of AlbuquerqueLocation

Past Weather in Albuquerque — Graph


Albuquerque Temperature Yesterday

Maximum temperature yesterday: 72 °F (at 2:52 PM)
Minimum temperature yesterday: 58 °F (at 7:52 AM)
Average temperature yesterday: 65 °F

High & Low Weather Summary for the Past Weeks

High84 °F (Oct 17, 4:52 PM)77% (Oct 13, 6:52 AM)30.36 "Hg (Oct 13, 6:52 AM)
Low44 °F (Oct 21, 5:52 AM)7% (Oct 19, 4:52 PM)29.65 "Hg (Oct 17, 2:52 PM)
Average64 °F33%30.01 "Hg
* Reported Oct 11 7:52 AM — Oct 26 7:52 AM, Albuquerque, Weather by CustomWeather, © 2016

Note: Actual official high and low records may vary slightly from our data, if they occured in-between our weather recording intervals... More about our weather records


Albuquerque Weather History for the Previous 24 Hours

Scroll right to see more
Time TempWeatherWind HumidityBarometerVisibility
7:52 AM
Wed, Oct 26
51 °FSunny.5 mph69%30.20 "Hg10 mi
6:52 AM51 °FClear.7 mph69%30.18 "Hg10 mi
5:52 AM52 °FClear.No wind66%30.16 "Hg10 mi
4:52 AM53 °FClear.7 mph66%30.14 "Hg10 mi
3:52 AM55 °FClear.7 mph62%30.13 "Hg10 mi
2:52 AM56 °FClear.6 mph60%30.13 "Hg10 mi
1:52 AM57 °FClear.3 mph58%30.12 "Hg10 mi
12:52 AM55 °FClear.3 mph62%30.12 "Hg10 mi
11:52 PM
Tue, Oct 25
59 °FClear.7 mph56%30.11 "Hg10 mi
10:52 PM61 °FClear.6 mph52%30.11 "Hg10 mi
9:52 PM62 °FClear.7 mph48%30.11 "Hg10 mi
8:52 PM65 °FClear.9 mph44%30.08 "Hg10 mi
7:52 PM67 °FPassing clouds.6 mph41%30.06 "Hg10 mi
6:52 PM69 °FPassing clouds.9 mph36%30.01 "Hg10 mi
5:52 PM70 °FScattered clouds.13 mph35%30.00 "Hg10 mi
4:52 PM71 °FPartly sunny.17 mph35%30.01 "Hg10 mi
3:52 PM72 °FBroken clouds.9 mph35%30.00 "Hg10 mi
2:52 PM72 °FBroken clouds.6 mph37%30.00 "Hg10 mi
1:52 PM71 °FScattered clouds.6 mph38%30.03 "Hg10 mi
12:52 PM69 °FScattered clouds.8 mph42%30.07 "Hg10 mi
11:52 AM64 °FScattered clouds.9 mph50%30.11 "Hg10 mi
10:52 AM63 °FScattered clouds.10 mph54%30.13 "Hg10 mi
9:52 AM60 °FPartly sunny.13 mph62%30.15 "Hg10 mi
Weather by CustomWeather, © 2016

See weather overviewHow to use our weather pages